Location: Dappach
(48.9767°N, 9.6998°E)
Time: 21:54:42
(UTC+00:00)

COSMOS 2428 - Pass Details

Date: 13 August 2024
Orbit: 842 x 857 km, 70.9° (Epoch: 09 September)

Event Time Altitude Azimuth Distance (km) Brightness Sun altitude
Exits shadow 23:41:15 23° 103° (ESE) 1,724 4.2 -26.7°
Maximum altitude 23:41:18 23° 102° (ESE) 1,724 4.2 -26.7°
Drops below altitude 10° 23:45:41 10° 51° (NE) 2,486 5.7 -26.6°
Sets 23:48:36 0° 38° (NE) 3,430 6.7 -26.6°
